Rutherford County, North Carolina, United States
Lat: 35.39N, Lon: 81.98W
Wx Zone: NCZ508
Local Info
Past Weather Observations for Today

NOTE: This archive is for the closest National Weather Service station to Rutherford County. Information may differ from the station used for current weather conditions.

Click here for Long-term Archive

Time Weather Temperature Dewpoint Humidity Pressure Winds Precip Visibility
08:35
Partly Cloudy
39°F / 4°C 23°F / -5°C 52% 30.15 in
(1021 mb)
N 4.6 mph
(N 7 kph)
- 10SM
08:15
Clear
37°F / 3°C 23°F / -5°C 56% 30.15 in
(1021 mb)
NW 3.5 mph
(NW 6 kph)
- 10SM
07:55
Clear
36°F / 2°C 23°F / -5°C 60% 30.15 in
(1021 mb)
NNW 3.5 mph
(NNW 6 kph)
- 10SM
07:35
Clear
37°F / 3°C 23°F / -5°C 56% 30.12 in
(1020 mb)
NW 6.9 mph
(NW 11 kph)
- 10SM
07:15
Clear
37°F / 3°C 25°F / -4°C 60% 30.12 in
(1020 mb)
NNW 8.1 mph
(NNW 13 kph)
- 10SM
06:55
Clear
37°F / 3°C 25°F / -4°C 60% 30.12 in
(1020 mb)
N 3.5 mph
(N 6 kph)
- 10SM
06:35
Clear
37°F / 3°C 25°F / -4°C 60% 30.09 in
(1019 mb)
NW 5.8 mph
(NW 9 kph)
- 10SM
06:15
Partly Cloudy
37°F / 3°C 27°F / -3°C 65% 30.09 in
(1019 mb)
Calm - 10SM
05:55
Mostly Cloudy
37°F / 3°C 28°F / -2°C 70% 30.09 in
(1019 mb)
Calm - 10SM
05:35
Overcast
39°F / 4°C 30°F / -1°C 70% 30.09 in
(1019 mb)
Calm - 10SM
05:15
Overcast
41°F / 5°C 30°F / -1°C 66% 30.06 in
(1018 mb)
Calm - 10SM
04:55
Overcast
41°F / 5°C 30°F / -1°C 66% 30.06 in
(1018 mb)
NNW 3.5 mph
(NNW 6 kph)
- 10SM
04:35
Overcast
41°F / 5°C 28°F / -2°C 61% 30.06 in
(1018 mb)
Calm - 10SM
04:15
Overcast
43°F / 6°C 30°F / -1°C 61% 30.06 in
(1018 mb)
W 5.8 mph
(W 9 kph)
- 10SM
03:55
Partly Cloudy
43°F / 6°C 30°F / -1°C 61% 30.06 in
(1018 mb)
SSW 5.8 mph
(SSW 9 kph)
- 10SM
03:35
Partly Cloudy
43°F / 6°C 30°F / -1°C 61% 30.04 in
(1017 mb)
W 12.7 mph
(W 20 kph)
- 10SM
03:15
Partly Cloudy
45°F / 7°C 30°F / -1°C 57% 30.04 in
(1017 mb)
SSW 13.8 mph
(SSW 22 kph)
- 10SM
02:55
Mostly Cloudy
46°F / 8°C 30°F / -1°C 53% 30.04 in
(1017 mb)
WNW 16.1 mph
(WNW 26 kph)
- 10SM
02:35
Overcast
48°F / 9°C 32°F / 0°C 54% 30.04 in
(1017 mb)
WNW 11.5 mph
(WNW 19 kph)
- 10SM
02:15
Overcast
48°F / 9°C 32°F / 0°C 54% 30.04 in
(1017 mb)
WNW 13.8 mph
(WNW 22 kph)
- 10SM
01:55
Overcast
46°F / 8°C 32°F / 0°C 57% 30.04 in
(1017 mb)
WNW 10.4 mph
(WNW 17 kph)
- 10SM
01:35
Overcast
43°F / 6°C 30°F / -1°C 61% 30.01 in
(1016 mb)
WNW 8.1 mph
(WNW 13 kph)
- 10SM
01:15
Overcast
39°F / 4°C 27°F / -3°C 61% 30.01 in
(1016 mb)
NW 5.8 mph
(NW 9 kph)
- 10SM
00:55
Overcast
39°F / 4°C 28°F / -2°C 65% 30.01 in
(1016 mb)
Calm - 10SM
00:35
Overcast
41°F / 5°C 28°F / -2°C 61% 30.01 in
(1016 mb)
Calm - 10SM
00:15
Overcast
41°F / 5°C 30°F / -1°C 66% 30.01 in
(1016 mb)
Calm - 10SM
Time Weather Temperature Dewpoint Humidity Pressure Winds Precip Visibility


Weather for websites

WeatherForYou.com, LLC is not responsible for any damages or problems caused by this service. Current weather conditions are obtained from the closest station including government and personal stations which may have varying degrees of accuracy. Weather forecasts are derived from the NOAA NDFD. Like all things, this site belongs to Jesus Christ... He just trusts me to maintain it. If you have any questions or comments email webmaster@weatherforyou.com

Copyright © 2015, WeatherForYou.com LLC. All rights reserved.